Climatologie pour Saint-Brevin les Pins
Jour • Résumé pour mai 11, 2017 Système :  Métrique    Anglais   Mixte
« - 1 jour
+ 1 jour »
Jour Semaine Mois Année Personnalisé
  Maximum : Minimum : Moyenne :
Température sous abri : -17.8 °C -11.1 °C -10 °C
Point de rosée : -17.8 °C -11.6 °C -10.7 °C
Humidité : Humidity % 86 % 92 %
Vitesse du vent : 0 km/h 0 km/h 9.7 km/h
Rafale : 0 km/h - -
Direction :- - South
Pression : 0 hPa 33602.7 hPa -
Précipitations : 167.64 mm    
Historical Graphs
 
 
Tableau de données pour mai 11, 2017
Heure Tempé Pt rosée Pression Vent Vitesse Rafale Humidité Taux pluie (/hr) Soleil
-17.8 °C -17.8 °C 0 hPa Calm     Humidity % 0 mm SolarRadiationWatts/m^2 W/m2 Conditions
00:00 -10.7 °C -11.3 °C 33788.9 hPa Calm   7.7 km/h 93 % 0 mm 0 W/m2
00:10 -10.4 °C -11.2 °C 33775.4 hPa Calm   7.7 km/h 92 % 0 mm 0 W/m2
00:15 -10.4 °C -11.3 °C 33788.9 hPa Calm   7.7 km/h 91 % 0 mm 0 W/m2
00:20 -10.4 °C -11.2 °C 33788.9 hPa Calm   5.1 km/h 91 % 0 mm 0 W/m2
00:25 -10.4 °C -11.2 °C 33775.4 hPa Calm   5.1 km/h 91 % 0 mm 0 W/m2
00:30 -10.4 °C -11.2 °C 33775.4 hPa East 2.6 km/h 5.1 km/h 91 % 0 mm 0 W/m2
00:35 -10.4 °C -11.2 °C 33775.4 hPa Calm   5.1 km/h 91 % 0 mm 0 W/m2
00:40 -10.4 °C -11.2 °C 33765.2 hPa Calm   5.1 km/h 91 % 0 mm 0 W/m2
00:45 -10.4 °C -11.2 °C 33765.2 hPa Calm   5.1 km/h 91 % 0 mm 0 W/m2
00:50 -10.4 °C -11.2 °C 33765.2 hPa East 5.1 km/h 7.7 km/h 91 % 0 mm 0 W/m2
00:55 -10.3 °C -11.1 °C 33765.2 hPa East 2.6 km/h 7.7 km/h 91 % 0 mm 0 W/m2
01:00 -10.3 °C -11.1 °C 33765.2 hPa Calm   7.7 km/h 91 % 0 mm 0 W/m2
01:05 -10.3 °C -11.1 °C 33765.2 hPa Calm   7.7 km/h 91 % 0 mm 0 W/m2
01:10 -10.3 °C -11.1 °C 33765.2 hPa Calm   5.1 km/h 91 % 0 mm 0 W/m2
01:15 -10.3 °C -11 °C 33765.2 hPa Calm   5.1 km/h 92 % 0 mm 0 W/m2
01:20 -10.3 °C -11 °C 33751.6 hPa East 5.1 km/h 5.1 km/h 92 % 0 mm 0 W/m2
01:25 -10.3 °C -11 °C 33751.6 hPa ESE 2.6 km/h 7.7 km/h 92 % 0 mm 0 W/m2
01:30 -10.2 °C -10.8 °C 33751.6 hPa Calm   7.7 km/h 93 % 0 mm 0 W/m2
01:35 -10.2 °C -10.8 °C 33751.6 hPa Calm   5.1 km/h 93 % 0 mm 0 W/m2
01:40 -10.2 °C -10.8 °C 33741.5 hPa Calm   7.7 km/h 93 % 0 mm 0 W/m2
01:45 -10.2 °C -10.9 °C 33741.5 hPa ESE 2.6 km/h 12.9 km/h 93 % 0 mm 0 W/m2
01:50 -10.3 °C -10.9 °C 33741.5 hPa Calm   12.9 km/h 93 % 0 mm 0 W/m2
01:55 -10.3 °C -10.8 °C 33741.5 hPa Calm   7.7 km/h 94 % 0 mm 0 W/m2
02:00 -10.3 °C -10.8 °C 33741.5 hPa ESE 2.6 km/h 7.7 km/h 94 % 0 mm 0 W/m2
02:05 -10.3 °C -10.8 °C 33741.5 hPa ESE 5.1 km/h 7.7 km/h 94 % 0 mm 0 W/m2
02:10 -10.3 °C -10.8 °C 33731.3 hPa Calm   7.7 km/h 94 % 0 mm 0 W/m2
02:15 -10.3 °C -10.8 °C 33731.3 hPa ESE 5.1 km/h 7.7 km/h 94 % 0 mm 0 W/m2
02:20 -10.3 °C -10.8 °C 33731.3 hPa Calm   7.7 km/h 94 % 0 mm 0 W/m2
02:25 -10.3 °C -10.7 °C 33731.3 hPa ESE 2.6 km/h 10.3 km/h 95 % 0 mm 0 W/m2
02:30 -10.3 °C -10.7 °C 33731.3 hPa ESE 5.1 km/h 10.3 km/h 95 % 0 mm 0 W/m2
02:35 -10.3 °C -10.7 °C 33731.3 hPa ESE 2.6 km/h 10.3 km/h 95 % 0 mm 0 W/m2
02:40 -10.3 °C -10.9 °C 33731.3 hPa Calm   7.7 km/h 94 % 0 mm 0 W/m2
02:45 -10.3 °C -10.8 °C 33717.8 hPa SE 2.6 km/h 10.3 km/h 95 % 0 mm 0 W/m2
02:50 -10.4 °C -10.8 °C 33717.8 hPa SE 5.1 km/h 10.3 km/h 95 % 0 mm 0 W/m2
02:55 -10.4 °C -10.8 °C 33717.8 hPa ESE 2.6 km/h 18.2 km/h 95 % 0 mm 0 W/m2
03:00 -10.4 °C -10.9 °C 33707.6 hPa ESE 5.1 km/h 18.2 km/h 95 % 0 mm 0 W/m2
03:05 -10.5 °C -10.9 °C 33707.6 hPa SE 7.7 km/h 12.9 km/h 95 % 0 mm 0 W/m2
03:10 -10.6 °C -11 °C 33707.6 hPa ESE 7.7 km/h 12.9 km/h 95 % 0 mm 0 W/m2
03:15 -10.6 °C -11.1 °C 33707.6 hPa ESE 2.6 km/h 12.9 km/h 95 % 0 mm 0 W/m2
03:20 -10.7 °C -11.1 °C 33707.6 hPa ESE 5.1 km/h 12.9 km/h 95 % 0 mm 0 W/m2
03:25 -10.7 °C -11.2 °C 33694.1 hPa Calm   12.9 km/h 95 % 0 mm 0 W/m2
03:30 -10.7 °C -11.2 °C 33694.1 hPa ESE 5.1 km/h 12.9 km/h 95 % 0 mm 0 W/m2
03:35 -10.7 °C -11.2 °C 33694.1 hPa Calm   15.6 km/h 95 % 0 mm 0 W/m2
03:40 -10.8 °C -11.2 °C 33694.1 hPa East 7.7 km/h 15.6 km/h 95 % 0 mm 0 W/m2
03:45 -10.8 °C -11.2 °C 33694.1 hPa ESE 7.7 km/h 12.9 km/h 95 % 0 mm 0 W/m2
03:50 -10.8 °C -11.2 °C 33683.9 hPa SE 5.1 km/h 12.9 km/h 96 % 0 mm 0 W/m2
03:55 -10.8 °C -11.2 °C 33683.9 hPa ESE 10.3 km/h 18.2 km/h 96 % 0 mm 0 W/m2
04:00 -10.8 °C -11.2 °C 33683.9 hPa ESE 5.1 km/h 18.2 km/h 96 % 0 mm 0 W/m2
04:05 -10.8 °C -11.2 °C 33683.9 hPa ESE 2.6 km/h 12.9 km/h 96 % 0 mm 0 W/m2
04:10 -10.8 °C -11.2 °C 33673.8 hPa ESE 7.7 km/h 12.9 km/h 96 % 0 mm 0 W/m2
04:15 -10.9 °C -11.2 °C 33673.8 hPa SE 5.1 km/h 12.9 km/h 96 % 0 mm 0 W/m2
04:20 -10.9 °C -11.2 °C 33660.2 hPa East 12.9 km/h 12.9 km/h 96 % 0 mm 0 W/m2
04:25 -10.9 °C -11.2 °C 33660.2 hPa SE 2.6 km/h 12.9 km/h 96 % 0 mm 0 W/m2
04:30 -10.9 °C -11.2 °C 33660.2 hPa ESE 5.1 km/h 15.6 km/h 96 % 0 mm 0 W/m2
04:35 -10.9 °C -11.2 °C 33650.1 hPa Calm   20.8 km/h 96 % 0 mm 0 W/m2
04:40 -10.9 °C -11.2 °C 33650.1 hPa SE 2.6 km/h 20.8 km/h 96 % 0 mm 0 W/m2
04:45 -10.9 °C -11.3 °C 33650.1 hPa SE 5.1 km/h 12.9 km/h 96 % 0 mm 0 W/m2
04:50 -10.9 °C -11.3 °C 33650.1 hPa SE 2.6 km/h 12.9 km/h 96 % 0 mm 0 W/m2
04:55 -11 °C -11.3 °C 33650.1 hPa SE 7.7 km/h 18.2 km/h 96 % 0 mm 0 W/m2
05:00 -11 °C -11.3 °C 33650.1 hPa ESE 5.1 km/h 18.2 km/h 96 % 0 mm 0 W/m2
05:05 -11 °C -11.4 °C 33639.9 hPa ESE 7.7 km/h 12.9 km/h 96 % 0 mm 0 W/m2
05:10 -11 °C -11.4 °C 33639.9 hPa East 12.9 km/h 15.6 km/h 96 % 0 mm 0 W/m2
05:15 -11 °C -11.4 °C 33639.9 hPa SSE 7.7 km/h 20.8 km/h 96 % 0 mm 0 W/m2
05:20 -11 °C -11.4 °C 33639.9 hPa SE 10.3 km/h 20.8 km/h 96 % 0 mm 0 W/m2
05:25 -11 °C -11.4 °C 33639.9 hPa SE 20.8 km/h 20.8 km/h 96 % 0 mm 0 W/m2
05:30 -11 °C -11.3 °C 33639.9 hPa SE 18.2 km/h 23.3 km/h 96 % 0 mm 0 W/m2
05:35 -11 °C -11.3 °C 33626.4 hPa SE 12.9 km/h 23.3 km/h 96 % 0 mm 0 W/m2
05:40 -11 °C -11.3 °C 33626.4 hPa ESE 7.7 km/h 20.8 km/h 96 % 0 mm 0 W/m2
05:45 -11 °C -11.3 °C 33626.4 hPa SE 7.7 km/h 20.8 km/h 96 % 0 mm 0 W/m2
05:55 -11 °C -11.4 °C 33616.2 hPa ESE 10.3 km/h 18.2 km/h 95 % 0 mm 0 W/m2
06:00 -11 °C -11.4 °C 33616.2 hPa Calm   18.2 km/h 95 % 0 mm 0 W/m2
06:05 -11 °C -11.4 °C 33616.2 hPa SE 7.7 km/h 18.2 km/h 95 % 0 mm 0 W/m2
06:10 -11.1 °C -11.5 °C 33616.2 hPa ESE 5.1 km/h 20.8 km/h 95 % 0 mm 0 W/m2
06:15 -11.1 °C -11.5 °C 33616.2 hPa Calm   20.8 km/h 95 % 0 mm 0 W/m2
06:20 -11.1 °C -11.5 °C 33602.7 hPa ESE 5.1 km/h 12.9 km/h 95 % 0 mm 0 W/m2
06:25 -11.1 °C -11.5 °C 33602.7 hPa ESE 10.3 km/h 18.2 km/h 95 % 0 mm 0 W/m2
06:30 -11 °C -11.4 °C 33602.7 hPa ESE 2.6 km/h 18.2 km/h 95 % 0 mm 0 W/m2
06:35 -11 °C -11.4 °C 33602.7 hPa SE 10.3 km/h 18.2 km/h 95 % 0 mm 5 W/m2
06:40 -11 °C -11.4 °C 33602.7 hPa ESE 2.6 km/h 18.2 km/h 95 % 0 mm 7 W/m2
06:45 -11 °C -11.4 °C 33602.7 hPa ESE 5.1 km/h 18.2 km/h 95 % 0 mm 11 W/m2
06:50 -11 °C -11.5 °C 33616.2 hPa SE 7.7 km/h 12.9 km/h 94 % 0 mm 16 W/m2
06:55 -11 °C -11.6 °C 33602.7 hPa SE 7.7 km/h 12.9 km/h 94 % 0 mm 19 W/m2
07:00 -11 °C -11.5 °C 33602.7 hPa SE 18.2 km/h 18.2 km/h 94 % 0 mm 21 W/m2
07:10 -10.9 °C -11.4 °C 33602.7 hPa SSE 10.3 km/h 20.8 km/h 94 % 0 mm 23 W/m2
07:15 -10.9 °C -11.4 °C 33602.7 hPa ESE 7.7 km/h 25.9 km/h 94 % 0 mm 21 W/m2
07:20 -10.9 °C -11.5 °C 33602.7 hPa ESE 5.1 km/h 25.9 km/h 93 % 0 mm 25 W/m2
07:25 -10.9 °C -11.5 °C 33602.7 hPa SE 2.6 km/h 20.8 km/h 93 % 0 mm 26 W/m2
07:30 -10.9 °C -11.5 °C 33602.7 hPa SE 15.6 km/h 23.3 km/h 93 % 0 mm 25 W/m2
07:35 -10.8 °C -11.4 °C 33602.7 hPa ESE 7.7 km/h 23.3 km/h 93 % 0 mm 21 W/m2
07:40 -10.8 °C -11.4 °C 33602.7 hPa SE 10.3 km/h 20.8 km/h 93 % 0 mm 19 W/m2
07:45 -10.8 °C -11.5 °C 33602.7 hPa SE 12.9 km/h 25.9 km/h 92 % 0 mm 21 W/m2
07:50 -10.8 °C -11.5 °C 33602.7 hPa ESE 10.3 km/h 25.9 km/h 92 % 0 mm 21 W/m2
07:55 -10.7 °C -11.4 °C 33616.2 hPa SE 5.1 km/h 25.9 km/h 92 % 0 mm 19 W/m2
08:00 -10.7 °C -11.4 °C 33616.2 hPa SE 7.7 km/h 25.9 km/h 92 % 0 mm 25 W/m2
08:05 -10.7 °C -11.4 °C 33616.2 hPa SSE 5.1 km/h 20.8 km/h 92 % 0 mm 28 W/m2
08:10 -10.7 °C -11.4 °C 33616.2 hPa SE 7.7 km/h 20.8 km/h 92 % 0 mm 42 W/m2
08:15 -10.7 °C -11.4 °C 33616.2 hPa ESE 10.3 km/h 18.2 km/h 92 % 0 mm 47 W/m2
08:20 -10.7 °C -11.4 °C 33616.2 hPa SE 15.6 km/h 18.2 km/h 92 % 0 mm 53 W/m2
08:25 -10.6 °C -11.4 °C 33616.2 hPa SSE 2.6 km/h 18.2 km/h 91 % 0 mm 54 W/m2
08:30 -10.6 °C -11.4 °C 33616.2 hPa South 5.1 km/h 20.8 km/h 91 % 0 mm 56 W/m2
08:35 -10.6 °C -11.3 °C 33616.2 hPa SE 7.7 km/h 20.8 km/h 91 % 0 mm 47 W/m2
08:40 -10.5 °C -11.3 °C 33616.2 hPa SE 7.7 km/h 18.2 km/h 91 % 0 mm 42 W/m2
08:45 -10.5 °C -11.3 °C 33616.2 hPa SE 12.9 km/h 18.2 km/h 91 % 0 mm 47 W/m2
08:50 -10.4 °C -11.3 °C 33616.2 hPa SE 2.6 km/h 23.3 km/h 91 % 0 mm 49 W/m2
08:55 -10.4 °C -11.2 °C 33616.2 hPa SSE 15.6 km/h 23.3 km/h 91 % 0 mm 39 W/m2
09:05 -10.4 °C -11.2 °C 33616.2 hPa ESE 2.6 km/h 15.6 km/h 91 % 0 mm 37 W/m2
09:10 -10.4 °C -11.2 °C 33616.2 hPa SE 5.1 km/h 15.6 km/h 91 % 0 mm 40 W/m2
09:15 -10.3 °C -11.2 °C 33616.2 hPa SSE 7.7 km/h 20.8 km/h 90 % 0 mm 46 W/m2
09:20 -10.2 °C -11.1 °C 33616.2 hPa SSE 7.7 km/h 20.8 km/h 91 % 0 mm 65 W/m2
09:25 -10.2 °C -11.1 °C 33616.2 hPa SSE 15.6 km/h 15.6 km/h 90 % 0 mm 46 W/m2
09:30 -10.1 °C -11 °C 33616.2 hPa SSE 5.1 km/h 18.2 km/h 90 % 0 mm 58 W/m2
09:35 -10.1 °C -10.9 °C 33616.2 hPa SE 10.3 km/h 18.2 km/h 90 % 0 mm 42 W/m2
09:40 -10.1 °C -10.9 °C 33616.2 hPa SSE 2.6 km/h 18.2 km/h 90 % 0 mm 12 W/m2
09:45 -10.1 °C -10.9 °C 33616.2 hPa SE 7.7 km/h 18.2 km/h 90 % 0 mm 23 W/m2
09:50 -10.1 °C -10.9 °C 33616.2 hPa SSE 7.7 km/h 18.2 km/h 91 % 7.62 mm 32 W/m2
09:55 -10.1 °C -10.8 °C 33616.2 hPa SE 2.6 km/h 15.6 km/h 92 % 12.7 mm 28 W/m2
10:00 -10.2 °C -10.8 °C 33616.2 hPa Calm   15.6 km/h 93 % 20.32 mm 33 W/m2
10:05 -10.2 °C -10.9 °C 33616.2 hPa Calm   15.6 km/h 93 % 25.4 mm 28 W/m2
10:10 -10.3 °C -10.8 °C 33616.2 hPa Calm   18.2 km/h 94 % 33.02 mm 28 W/m2
10:15 -10.3 °C -10.9 °C 33616.2 hPa Calm   18.2 km/h 94 % 38.1 mm 40 W/m2
10:20 -10.3 °C -10.9 °C 33616.2 hPa SSE 10.3 km/h 12.9 km/h 94 % 38.1 mm 21 W/m2
10:25 -10.4 °C -10.8 °C 33616.2 hPa SE 12.9 km/h 18.2 km/h 95 % 45.72 mm 37 W/m2
10:30 -10.4 °C -10.8 °C 33616.2 hPa ESE 12.9 km/h 18.2 km/h 95 % 45.72 mm 33 W/m2
10:35 -10.4 °C -10.8 °C 33616.2 hPa Calm   20.8 km/h 95 % 45.72 mm 58 W/m2
10:40 -10.4 °C -10.7 °C 33616.2 hPa SSE 12.9 km/h 20.8 km/h 96 % 45.72 mm 67 W/m2
10:45 -10.4 °C -10.7 °C 33616.2 hPa SE 2.6 km/h 20.8 km/h 96 % 50.8 mm 90 W/m2
10:50 -10.3 °C -10.7 °C 33616.2 hPa SE 5.1 km/h 20.8 km/h 96 % 45.72 mm 79 W/m2
10:55 -10.3 °C -10.7 °C 33616.2 hPa SE 10.3 km/h 18.2 km/h 96 % 38.1 mm 74 W/m2
11:05 -10.3 °C -10.7 °C 33616.2 hPa SSE 7.7 km/h 20.8 km/h 96 % 33.02 mm 44 W/m2
11:10 -10.3 °C -10.7 °C 33616.2 hPa SSE 5.1 km/h 23.3 km/h 96 % 33.02 mm 30 W/m2
11:15 -10.3 °C -10.7 °C 33616.2 hPa SE 7.7 km/h 23.3 km/h 96 % 33.02 mm 30 W/m2
11:20 -10.3 °C -10.7 °C 33616.2 hPa SSE 5.1 km/h 20.8 km/h 96 % 38.1 mm 51 W/m2
11:25 -10.3 °C -10.7 °C 33616.2 hPa SE 2.6 km/h 20.8 km/h 96 % 45.72 mm 62 W/m2
11:30 -10.3 °C -10.7 °C 33616.2 hPa SSE 23.3 km/h 23.3 km/h 96 % 50.8 mm 42 W/m2
11:35 -10.3 °C -10.7 °C 33616.2 hPa SE 5.1 km/h 23.3 km/h 96 % 58.42 mm 49 W/m2
11:40 -10.3 °C -10.7 °C 33616.2 hPa SSE 5.1 km/h 23.3 km/h 96 % 76.2 mm 100 W/m2
11:45 -10.2 °C -10.4 °C 33616.2 hPa ESE 2.6 km/h 15.6 km/h 97 % 96.52 mm 123 W/m2
11:50 -10.2 °C -10.4 °C 33616.2 hPa SE 5.1 km/h 18.2 km/h 97 % 104.14 mm 139 W/m2
11:55 -10.1 °C -10.4 °C 33616.2 hPa SE 12.9 km/h 18.2 km/h 97 % 96.52 mm 155 W/m2
12:00 -10.1 °C -10.4 °C 33616.2 hPa SE 2.6 km/h 20.8 km/h 97 % 104.14 mm 167 W/m2
12:05 -10.1 °C -10.3 °C 33616.2 hPa SSE 7.7 km/h 20.8 km/h 97 % 104.14 mm 144 W/m2
12:10 -10.1 °C -10.3 °C 33616.2 hPa SSE 12.9 km/h 28.5 km/h 97 % 96.52 mm 144 W/m2
12:15 -10.1 °C -10.3 °C 33616.2 hPa SSE 7.7 km/h 28.5 km/h 97 % 83.82 mm 120 W/m2
12:20 -10 °C -10.3 °C 33602.7 hPa SE 12.9 km/h 23.3 km/h 97 % 76.2 mm 160 W/m2
12:25 -9.9 °C -10.3 °C 33602.7 hPa SE 5.1 km/h 25.9 km/h 96 % 63.5 mm 200 W/m2
12:30 -9.9 °C -10.2 °C 33602.7 hPa ESE 20.8 km/h 25.9 km/h 97 % 63.5 mm 302 W/m2
12:35 -9.9 °C -10.1 °C 33602.7 hPa SSE 10.3 km/h 25.9 km/h 97 % 50.8 mm 218 W/m2
12:40 -9.8 °C -10.2 °C 33602.7 hPa SE 15.6 km/h 28.5 km/h 96 % 38.1 mm 181 W/m2
12:45 -9.9 °C -10.3 °C 33602.7 hPa SSE 12.9 km/h 28.5 km/h 96 % 12.7 mm 209 W/m2
12:50 -9.9 °C -10.3 °C 33616.2 hPa SE 18.2 km/h 25.9 km/h 96 % 12.7 mm 153 W/m2
12:55 -9.9 °C -10.3 °C 33616.2 hPa SSE 28.5 km/h 28.5 km/h 96 % 12.7 mm 209 W/m2
13:00 -9.9 °C -10.3 °C 33602.7 hPa SSE 18.2 km/h 28.5 km/h 96 % 12.7 mm 244 W/m2
13:05 -9.9 °C -10.2 °C 33616.2 hPa SSE 15.6 km/h 25.9 km/h 96 % 12.7 mm 255 W/m2
13:10 -9.7 °C -10.1 °C 33616.2 hPa South 10.3 km/h 25.9 km/h 96 % 12.7 mm 183 W/m2
13:15 -9.7 °C -10.1 °C 33616.2 hPa South 12.9 km/h 20.8 km/h 96 % 12.7 mm 236 W/m2
13:20 -9.8 °C -10.1 °C 33616.2 hPa South 10.3 km/h 31.1 km/h 96 % 12.7 mm 137 W/m2
13:25 -9.8 °C -10.2 °C 33616.2 hPa SSE 7.7 km/h 31.1 km/h 95 % 12.7 mm 125 W/m2
13:30 -9.8 °C -10.1 °C 33616.2 hPa SSW 7.7 km/h 25.9 km/h 96 % 7.62 mm 362 W/m2
13:35 -9.7 °C -10.1 °C 33616.2 hPa South 7.7 km/h 33.6 km/h 95 % 7.62 mm 230 W/m2
13:40 -9.6 °C -10.1 °C 33616.2 hPa SSW 18.2 km/h 33.6 km/h 95 % 7.62 mm 229 W/m2
13:45 -9.6 °C -10.1 °C 33616.2 hPa South 18.2 km/h 31.1 km/h 95 % 7.62 mm 348 W/m2
13:50 -9.6 °C -10 °C 33616.2 hPa South 18.2 km/h 33.6 km/h 95 % 0 mm 334 W/m2
13:55 -9.4 °C -9.8 °C 33616.2 hPa South 15.6 km/h 33.6 km/h 95 % 0 mm 424 W/m2
14:00 -9.3 °C -9.7 °C 33616.2 hPa SSE 2.6 km/h 23.3 km/h 95 % 0 mm 504 W/m2
14:05 -9.1 °C -9.5 °C 33616.2 hPa South 12.9 km/h 20.8 km/h 95 % 0 mm 475 W/m2
14:10 -8.9 °C -9.4 °C 33616.2 hPa SSW 20.8 km/h 20.8 km/h 94 % 0 mm 207 W/m2
14:15 -9.1 °C -9.7 °C 33616.2 hPa SSW 12.9 km/h 28.5 km/h 93 % 0 mm 297 W/m2
14:20 -9.1 °C -9.7 °C 33616.2 hPa SSE 15.6 km/h 28.5 km/h 93 % 0 mm 295 W/m2
14:25 -9.1 °C -9.6 °C 33616.2 hPa SSE 10.3 km/h 25.9 km/h 94 % 0 mm 359 W/m2
14:30 -9 °C -9.7 °C 33616.2 hPa SSW 12.9 km/h 25.9 km/h 93 % 0 mm 163 W/m2
14:35 -9.1 °C -9.8 °C 33616.2 hPa South 18.2 km/h 28.5 km/h 92 % 0 mm 207 W/m2
14:40 -9.2 °C -9.8 °C 33616.2 hPa SSW 20.8 km/h 28.5 km/h 93 % 0 mm 151 W/m2
14:45 -9.3 °C -9.9 °C 33616.2 hPa SSW 12.9 km/h 28.5 km/h 93 % 0 mm 213 W/m2
14:50 -9.2 °C -9.8 °C 33616.2 hPa WSW 7.7 km/h 28.5 km/h 93 % 0 mm 311 W/m2
14:55 -9.1 °C -9.6 °C 33616.2 hPa SSW 5.1 km/h 23.3 km/h 94 % 0 mm 281 W/m2
15:00 -9 °C -9.6 °C 33616.2 hPa SSW 10.3 km/h 28.5 km/h 93 % 0 mm 297 W/m2
15:05 -9 °C -9.6 °C 33616.2 hPa South 12.9 km/h 28.5 km/h 93 % 0 mm 362 W/m2
15:10 -8.9 °C -9.6 °C 33616.2 hPa SSW 18.2 km/h 25.9 km/h 92 % 0 mm 385 W/m2
15:15 -8.9 °C -9.6 °C 33616.2 hPa SW 12.9 km/h 23.3 km/h 92 % 0 mm 299 W/m2
15:20 -8.9 °C -9.7 °C 33616.2 hPa SSW 2.6 km/h 25.9 km/h 92 % 0 mm 271 W/m2
15:25 -8.9 °C -9.6 °C 33626.4 hPa SW 18.2 km/h 25.9 km/h 92 % 0 mm 199 W/m2
15:30 -9 °C -9.7 °C 33626.4 hPa WSW 12.9 km/h 25.9 km/h 92 % 0 mm 216 W/m2
15:35 -9 °C -9.6 °C 33626.4 hPa West 15.6 km/h 28.5 km/h 93 % 0 mm 436 W/m2
15:40 -8.8 °C -9.5 °C 33626.4 hPa WSW 12.9 km/h 28.5 km/h 93 % 0 mm 547 W/m2
15:45 -8.8 °C -9.5 °C 33626.4 hPa SSW 7.7 km/h 25.9 km/h 92 % 0 mm 591 W/m2
15:50 -8.5 °C -9.2 °C 33626.4 hPa SSW 18.2 km/h 31.1 km/h 92 % 0 mm 663 W/m2
15:55 -8.5 °C -9.4 °C 33626.4 hPa West 15.6 km/h 38.8 km/h 90 % 0 mm 911 W/m2
16:00 -8.5 °C -9.6 °C 33626.4 hPa WNW 5.1 km/h 38.8 km/h 89 % 0 mm 777 W/m2
16:05 -8.5 °C -9.6 °C 33626.4 hPa WSW 23.3 km/h 33.6 km/h 89 % 0 mm 548 W/m2
16:10 -8.7 °C -9.6 °C 33626.4 hPa West 31.1 km/h 36.2 km/h 90 % 0 mm 508 W/m2
16:15 -8.7 °C -9.6 °C 33639.9 hPa NW 15.6 km/h 36.2 km/h 90 % 0 mm 745 W/m2
16:20 -8.8 °C -9.7 °C 33639.9 hPa WSW 12.9 km/h 33.6 km/h 90 % 0 mm 682 W/m2
16:25 -8.7 °C -9.7 °C 33639.9 hPa WNW 23.3 km/h 31.1 km/h 89 % 0 mm 793 W/m2
16:30 -8.6 °C -9.6 °C 33639.9 hPa WSW 31.1 km/h 38.8 km/h 89 % 0 mm 780 W/m2
16:35 -8.6 °C -9.5 °C 33639.9 hPa WSW 38.8 km/h 38.8 km/h 90 % 0 mm 846 W/m2
16:40 -8.7 °C -9.8 °C 33639.9 hPa West 15.6 km/h 38.8 km/h 88 % 0 mm 390 W/m2
16:45 -8.8 °C -9.7 °C 33639.9 hPa WSW 12.9 km/h 38.8 km/h 90 % 0 mm 568 W/m2
16:50 -8.8 °C -9.9 °C 33639.9 hPa SW 23.3 km/h 36.2 km/h 88 % 0 mm 628 W/m2
16:55 -8.9 °C -9.9 °C 33639.9 hPa WNW 20.8 km/h 38.8 km/h 89 % 0 mm 533 W/m2
17:00 -8.9 °C -9.9 °C 33639.9 hPa WSW 28.5 km/h 38.8 km/h 89 % 0 mm 654 W/m2
17:05 -9 °C -9.9 °C 33650.1 hPa WSW 12.9 km/h 33.6 km/h 90 % 0 mm 522 W/m2
17:10 -8.9 °C -9.8 °C 33650.1 hPa WSW 28.5 km/h 33.6 km/h 90 % 0 mm 596 W/m2
17:15 -9 °C -9.9 °C 33650.1 hPa West 10.3 km/h 36.2 km/h 90 % 0 mm 455 W/m2
17:20 -8.9 °C -9.8 °C 33650.1 hPa West 23.3 km/h 36.2 km/h 90 % 0 mm 425 W/m2
17:25 -9.1 °C -10 °C 33650.1 hPa WSW 28.5 km/h 33.6 km/h 90 % 0 mm 417 W/m2
17:35 -9.1 °C -10.1 °C 33650.1 hPa WSW 38.8 km/h 38.8 km/h 90 % 0 mm 612 W/m2
17:40 -9.1 °C -10 °C 33660.2 hPa WSW 12.9 km/h 38.8 km/h 90 % 0 mm 364 W/m2
17:45 -8.9 °C -9.8 °C 33650.1 hPa SW 20.8 km/h 38.8 km/h 90 % 0 mm 568 W/m2
17:50 -8.9 °C -9.9 °C 33650.1 hPa WSW 12.9 km/h 33.6 km/h 89 % 0 mm 513 W/m2
17:55 -8.8 °C -9.7 °C 33650.1 hPa West 10.3 km/h 33.6 km/h 90 % 0 mm 540 W/m2
18:00 -8.8 °C -9.7 °C 33650.1 hPa WSW 25.9 km/h 33.6 km/h 90 % 0 mm 510 W/m2
18:05 -8.9 °C -9.9 °C 33650.1 hPa WSW 5.1 km/h 31.1 km/h 89 % 0 mm 487 W/m2
18:10 -8.9 °C -9.9 °C 33650.1 hPa East 5.1 km/h 31.1 km/h 89 % 0 mm 492 W/m2
18:15 -8.9 °C -9.8 °C 33660.2 hPa SSW 18.2 km/h 25.9 km/h 90 % 0 mm 473 W/m2
18:20 -9 °C -10.1 °C 33660.2 hPa SW 15.6 km/h 25.9 km/h 88 % 0 mm 459 W/m2
18:25 -9.1 °C -10.1 °C 33660.2 hPa SW 7.7 km/h 28.5 km/h 89 % 0 mm 445 W/m2
18:30 -9.1 °C -10.1 °C 33650.1 hPa SW 5.1 km/h 28.5 km/h 89 % 0 mm 429 W/m2
18:35 -9.1 °C -10 °C 33660.2 hPa SSW 12.9 km/h 25.9 km/h 90 % 0 mm 413 W/m2
18:40 -9.1 °C -10.1 °C 33650.1 hPa SW 12.9 km/h 25.9 km/h 89 % 0 mm 399 W/m2
18:45 -9.1 °C -10.1 °C 33660.2 hPa SW 7.7 km/h 25.9 km/h 89 % 0 mm 383 W/m2
18:50 -8.9 °C -10 °C 33660.2 hPa South 5.1 km/h 23.3 km/h 88 % 0 mm 367 W/m2
18:55 -8.9 °C -10.1 °C 33660.2 hPa WSW 5.1 km/h 28.5 km/h 87 % 0 mm 353 W/m2
19:00 -8.9 °C -9.9 °C 33660.2 hPa SW 5.1 km/h 28.5 km/h 89 % 0 mm 345 W/m2
19:10 -8.9 °C -10 °C 33650.1 hPa SSW 5.1 km/h 18.2 km/h 88 % 0 mm 311 W/m2
19:15 -8.9 °C -10.1 °C 33650.1 hPa SSW 5.1 km/h 20.8 km/h 88 % 0 mm 295 W/m2
19:20 -9.1 °C -10.2 °C 33660.2 hPa WSW 20.8 km/h 28.5 km/h 87 % 0 mm 281 W/m2
19:25 -9.2 °C -10.2 °C 33660.2 hPa SSW 10.3 km/h 28.5 km/h 89 % 0 mm 269 W/m2
19:30 -9.1 °C -10.1 °C 33660.2 hPa South 5.1 km/h 23.3 km/h 89 % 0 mm 255 W/m2
19:35 -9.1 °C -10.2 °C 33660.2 hPa WSW 7.7 km/h 25.9 km/h 88 % 0 mm 260 W/m2
19:40 -9.3 °C -10.4 °C 33660.2 hPa SSW 12.9 km/h 28.5 km/h 88 % 0 mm 257 W/m2
19:45 -9.3 °C -10.3 °C 33660.2 hPa WSW 10.3 km/h 28.5 km/h 88 % 0 mm 207 W/m2
19:50 -9.2 °C -10.3 °C 33660.2 hPa WSW 15.6 km/h 23.3 km/h 88 % 0 mm 209 W/m2
19:55 -9.3 °C -10.3 °C 33660.2 hPa SSW 5.1 km/h 23.3 km/h 88 % 0 mm 195 W/m2
20:00 -9.2 °C -10.4 °C 33660.2 hPa South 5.1 km/h 23.3 km/h 87 % 0 mm 178 W/m2
20:05 -9.2 °C -10.3 °C 33660.2 hPa SSW 15.6 km/h 23.3 km/h 88 % 0 mm 156 W/m2
20:10 -9.2 °C -10.4 °C 33660.2 hPa South 2.6 km/h 23.3 km/h 87 % 0 mm 128 W/m2
20:15 -9.3 °C -10.6 °C 33660.2 hPa South 7.7 km/h 28.5 km/h 86 % 0 mm 120 W/m2
20:20 -9.3 °C -10.5 °C 33660.2 hPa SSW 20.8 km/h 28.5 km/h 87 % 0 mm 86 W/m2
20:25 -9.3 °C -10.6 °C 33660.2 hPa SW 10.3 km/h 31.1 km/h 87 % 0 mm 35 W/m2
20:30 -9.4 °C -10.6 °C 33673.8 hPa WSW 10.3 km/h 31.1 km/h 87 % 0 mm 26 W/m2
20:35 -9.6 °C -10.7 °C 33660.2 hPa SSW 15.6 km/h 25.9 km/h 88 % 0 mm 42 W/m2
20:40 -9.6 °C -10.6 °C 33673.8 hPa SW 12.9 km/h 23.3 km/h 89 % 0 mm 40 W/m2
20:45 -9.6 °C -10.6 °C 33673.8 hPa SSW 7.7 km/h 23.3 km/h 89 % 0 mm 32 W/m2
20:50 -9.6 °C -10.6 °C 33673.8 hPa SSW 5.1 km/h 23.3 km/h 89 % 0 mm 35 W/m2
20:55 -9.6 °C -10.6 °C 33673.8 hPa SW 10.3 km/h 23.3 km/h 89 % 0 mm 19 W/m2
21:00 -9.6 °C -10.6 °C 33673.8 hPa South 12.9 km/h 20.8 km/h 89 % 0 mm 23 W/m2
21:05 -9.7 °C -10.6 °C 33673.8 hPa South 15.6 km/h 23.3 km/h 90 % 0 mm 28 W/m2
21:10 -9.7 °C -10.6 °C 33683.9 hPa South 7.7 km/h 23.3 km/h 90 % 0 mm 16 W/m2
21:15 -9.7 °C -10.7 °C 33683.9 hPa South 18.2 km/h 33.6 km/h 89 % 0 mm 11 W/m2
21:20 -9.7 °C -10.7 °C 33683.9 hPa South 18.2 km/h 33.6 km/h 89 % 0 mm 5 W/m2
21:25 -9.7 °C -10.7 °C 33683.9 hPa SSW 10.3 km/h 31.1 km/h 89 % 0 mm 0 W/m2
21:30 -9.7 °C -10.7 °C 33683.9 hPa SSW 12.9 km/h 25.9 km/h 89 % 0 mm 0 W/m2
21:35 -9.7 °C -10.6 °C 33683.9 hPa South 20.8 km/h 25.9 km/h 90 % 0 mm 0 W/m2
21:40 -9.7 °C -10.6 °C 33683.9 hPa SSW 12.9 km/h 25.9 km/h 90 % 0 mm 0 W/m2
21:45 -9.7 °C -10.6 °C 33694.1 hPa SSW 15.6 km/h 23.3 km/h 90 % 0 mm 0 W/m2
21:50 -9.8 °C -10.7 °C 33694.1 hPa WSW 12.9 km/h 28.5 km/h 90 % 0 mm 0 W/m2
21:55 -9.8 °C -10.7 °C 33694.1 hPa SSW 10.3 km/h 28.5 km/h 90 % 0 mm 0 W/m2
22:00 -9.8 °C -10.7 °C 33694.1 hPa SSW 25.9 km/h 28.5 km/h 90 % 0 mm 0 W/m2
22:05 -9.8 °C -10.7 °C 33707.6 hPa South 10.3 km/h 25.9 km/h 90 % 0 mm 0 W/m2
22:10 -9.8 °C -10.7 °C 33707.6 hPa SW 10.3 km/h 25.9 km/h 90 % 0 mm 0 W/m2
22:15 -9.9 °C -10.7 °C 33694.1 hPa SSE 7.7 km/h 25.9 km/h 91 % 0 mm 0 W/m2
22:20 -9.9 °C -10.8 °C 33707.6 hPa SSW 18.2 km/h 25.9 km/h 91 % 0 mm 0 W/m2
22:25 -10 °C -10.7 °C 33707.6 hPa SSW 12.9 km/h 25.9 km/h 92 % 0 mm 0 W/m2
22:30 -10.1 °C -10.7 °C 33707.6 hPa SSW 12.9 km/h 25.9 km/h 92 % 0 mm 0 W/m2
22:35 -10.1 °C -10.8 °C 33717.8 hPa SW 7.7 km/h 31.1 km/h 92 % 0 mm 0 W/m2
22:40 -10.1 °C -10.8 °C 33717.8 hPa South 18.2 km/h 31.1 km/h 92 % 0 mm 0 W/m2
22:45 -10.1 °C -10.7 °C 33717.8 hPa South 18.2 km/h 23.3 km/h 93 % 0 mm 0 W/m2
22:50 -10.1 °C -10.7 °C 33717.8 hPa South 5.1 km/h 23.3 km/h 93 % 0 mm 0 W/m2
22:55 -10.1 °C -10.7 °C 33717.8 hPa SSW 18.2 km/h 25.9 km/h 93 % 0 mm 0 W/m2
23:00 -10.1 °C -10.7 °C 33717.8 hPa SE 10.3 km/h 25.9 km/h 93 % 0 mm 0 W/m2
23:05 -10.1 °C -10.7 °C 33717.8 hPa SSW 15.6 km/h 25.9 km/h 93 % 0 mm 0 W/m2
23:10 -10.2 °C -10.8 °C 33717.8 hPa SSW 10.3 km/h 25.9 km/h 93 % 0 mm 0 W/m2
23:15 -10.2 °C -10.8 °C 33717.8 hPa South 10.3 km/h 25.9 km/h 93 % 0 mm 0 W/m2
23:20 -10.2 °C -10.8 °C 33717.8 hPa South 10.3 km/h 28.5 km/h 93 % 0 mm 0 W/m2
23:25 -10.2 °C -10.9 °C 33717.8 hPa SSW 12.9 km/h 28.5 km/h 93 % 0 mm 0 W/m2
23:30 -10.2 °C -10.8 °C 33731.3 hPa SSW 18.2 km/h 25.9 km/h 93 % 0 mm 0 W/m2
23:35 -10.2 °C -10.8 °C 33731.3 hPa SSW 7.7 km/h 28.5 km/h 93 % 0 mm 0 W/m2
23:40 -10.2 °C -10.7 °C 33731.3 hPa SSW 12.9 km/h 31.1 km/h 94 % 0 mm 0 W/m2
23:45 -10.2 °C -10.7 °C 33717.8 hPa SSW 18.2 km/h 31.1 km/h 94 % 0 mm 0 W/m2
23:50 -10.2 °C -10.7 °C 33717.8 hPa SSW 10.3 km/h 28.5 km/h 94 % 0 mm 0 W/m2
23:55 -10.2 °C -10.7 °C 33717.8 hPa South 10.3 km/h 31.1 km/h 94 % 0 mm 0 W/m2
Avec l'autorisation de Weather Underground - 1.75 mb